Regional Weather Roundup
Issued by NWS

Home | Current Version | Previous Version | Graphics & Text | Print | Product List | Glossary On
Versions: 1 2 3 4 5 6 7 8 9 10 11 12 13 14 15 16 17 18 19 20 21 22 23 24 25 26 27 28 29 30 31 32 33 34 35 36 37 38 39 40 41 42 43 44 45 46 47 48 49
000
ASUS43 KDMX 300607
RWRIA

WEATHER ROUNDUP FOR IOWA
NATIONAL WEATHER SERVICE DES MOINES IA
100 AM CDT TUE SEP 30 2014

NOTE: "FAIR" INDICATES FEW OR NO CLOUDS BELOW 12,000 FEET WITH NO
SIGNIFICANT WEATHER AND/OR OBSTRUCTIONS TO VISIBILITY.

* - THESE STATIONS ARE NOT NWS STATIONS...THUS NOT UNDER NWS
QUALITY CONTROL.  THEY ALSO DO NOT REPORT WEATHER SUCH
AS PRECIPITATION OR FOG.

IAZ001>003-012>014-020>022-031>034-043>046-300700-
   NORTHWEST IOWA

CITY           SKY/WX    TMP DP  RH WIND       PRES   REMARKS
CARROLL *      MOCLDY    57  55  94 E5        30.02S
CHEROKEE *     CLEAR     55  54  95 E5        30.02S
DENISON *      MOCLDY    59  59 100 E8        29.98F FOG
LE MARS *        N/A     59  54  82 E8G15     30.01R
ORANGE CITY *  MOCLDY    57  52  82 E9G17     30.00F
SHELDON *      MOCLDY    54  50  87 E12G17    30.01S
SIOUX CITY     MOCLDY    61  58  90 E10       29.98S
6HR MIN TEMP:  61; 6HR MAX TEMP:  74;

SPENCER        CLOUDY    53  49  86 E8        30.04S
6HR MIN TEMP:  53; 6HR MAX TEMP:  63;

STORM LAKE *   CLEAR     54  54 100 E10       30.03S
$$

IAZ055>058-069>071-079>083-090>094-300700-
   SOUTHWEST IOWA

CITY           SKY/WX    TMP DP  RH WIND       PRES   REMARKS
ATLANTIC *     MOCLDY    63  61  94 NE5       29.98F FOG
AUDUBON *      PTCLDY    59  54  82 CALM      30.01F HAZE
CLARINDA *     CLEAR     55  54  94 CALM      29.99S
COUNCIL BLFS *   N/A     64  63  94 E8        29.96S
CRESTON *      PTCLDY    63  61  94 NE7       30.00S
HARLAN  *      PTCLDY    61  61 100 E6        30.02F FOG
LAMONI         CLEAR     65  57  75 S7        29.98R
6HR MIN TEMP:  62; 6HR MAX TEMP:  77;

RED OAK *      CLEAR     59  55  88 NE3       29.97S FOG
SHENANDOAH *   PTCLDY    61  55  82 CALM      29.97S
$$

IAZ047>049-059>061-072>074-084-300700-
   CENTRAL IOWA

CITY           SKY/WX    TMP DP  RH WIND       PRES   REMARKS
AMES           PTCLDY    56  53  90 NE7       30.01R
6HR MIN TEMP:  56; 6HR MAX TEMP:  72;

ANKENY *       CLEAR     59  57  94 NE5       30.00S
CHARITON *     CLEAR     63  61  94 NE5       29.99R FOG
DES MOINES     CLEAR     63  58  83 NE6       30.00R
6HR MIN TEMP:  63; 6HR MAX TEMP:  78;

GRINNELL*      CLEAR     57  54  91 NE7       30.01R
KNOXVILLE *    CLEAR     63  59  88 NE6       29.98R
MARSHALLTOWN   CLOUDY    55  52  89 NE10      30.01S
6HR MIN TEMP:  54; 6HR MAX TEMP:  71;

PELLA *        CLEAR     61  58  90 CALM      30.00S
PERRY *          N/A     59  57  92 E3        30.01S
$$

IAZ004>006-015-016-023>025-035-036-300700-
   NORTH CENTRAL IOWA

CITY           SKY/WX    TMP DP  RH WIND       PRES   REMARKS
ALGONA *       CLEAR     52  50  93 E5        30.05S
CLARION *      CLEAR     52  50  93 E8        30.04R
ESTHERVILLE    CLEAR     48  47  96 E3        30.05S
6HR MIN TEMP:  48; 6HR MAX TEMP:  59;

FORT DODGE *   CLOUDY    54  48  82 E7        30.04R
MASON CITY     CLEAR     49  48  97 NE6       30.06S
6HR MIN TEMP:  49; 6HR MAX TEMP:  61;

FOREST CITY *  CLEAR     50  50 100 E3        30.05R
IOWA FALLS *     N/A     54  50  87 NE7       30.04S
$$

IAZ007>011-017>019-026>030-037>042-050>054-066-300700-
   NORTHEAST IOWA

CITY           SKY/WX    TMP DP  RH WIND       PRES   REMARKS
CHARLES CITY * CLEAR     50  48  93 NE8       30.05S
CLINTON *      CLOUDY    55  50  82 NE13      30.03S
DECORAH *      CLEAR     48  46  93 NE7       30.05S
MONTICELLO *   CLOUDY    55  52  88 NE6       30.02S
OELWEIN *      CLOUDY    54  50  87 E10G17    30.04S
WATERLOO       CLOUDY    55  50  83 E10       30.02S
6HR MIN TEMP:  53; 6HR MAX TEMP:  66;

$$

IAZ064-065-067-068-078-300700-
   EAST CENTRAL IOWA

CITY           SKY/WX    TMP DP  RH WIND       PRES   REMARKS
IOWA CITY      PTCLDY    59  56  89 NE10      30.01R
6HR MIN TEMP:  59; 6HR MAX TEMP:  74;

MT. PLEASANT * CLEAR     64  61  91 N5        29.96S FOG
MUSCATINE *    MOCLDY    63  57  82 NE14      29.98R
$$

IAZ062-063-075>077-085>089-095>099-300700-
   SOUTHEAST IOWA

CITY           SKY/WX    TMP DP  RH WIND       PRES   REMARKS
BURLINGTON     CLEAR     65  59  81 NW3       29.95S
6HR MIN TEMP:  62; 6HR MAX TEMP:  72;

FAIRFIELD *    CLEAR     63  59  88 NE8       29.97S
FORT MADISON * CLEAR     64  57  77 NW3       29.96S
KEOKUK *       CLEAR     63  59  88 CALM      29.94S
OSKALOOSA *      N/A     62  59  93 NE5       29.99R
CENTERVILLE *  CLEAR     63  63 100 NE3       29.99S
OTTUMWA        CLEAR     63  60  90 NE5       29.98R
6HR MIN TEMP:  63; 6HR MAX TEMP:  74;

WASHINGTON *   CLEAR     63  59  88 NE9       29.98R
$$

ABBREVIATIONS USED IN REMARKS
   TC - TEMPERATURES IN CELSIUS
  WCI - WIND CHILL INDEX
   HX - HEAT INDEX
  VSB - VISIBILITY
$$



USA.gov is the U.S. government's official web portal to all federal, state and local government web resources and services.